Regional Weather Roundup
Issued by NWS

Home | Current Version | Previous Version | Text Only | Print | Product List | Glossary Off
Versions: 1 2 3 4 5 6 7 8 9 10 11 12 13 14 15 16 17 18 19 20 21 22 23 24 25 26 27 28 29 30 31 32 33 34 35 36 37 38 39 40 41 42 43 44 45 46 47 48 49 50

000
ASUS43 KMPX 261510
RWRMN
WEATHER ROUNDUP FOR MINNESOTA
NATIONAL WEATHER SERVICE TWIN CITIES/CHANHASSEN MN
900 AM CST MON JAN 26 2015


NOTE: "FAIR" INDICATES FEW OR NO CLOUDS BELOW 12,000 FEET WITH NO
SIGNIFICANT WEATHER AND/OR OBSTRUCTIONS TO VISIBILITY. N/A MEANS
CURRENT SKY AND/OR WEATHER CONDITIONS ARE NOT AVAILABLE.

MNZ060>063-068>070-261600-
   Twin Cities Metro

CITY           SKY/WX    TMP DP  RH WIND       PRES   REMARKS
TWIN CITIES    CLOUDY    32  28  85 CALM      29.70S
ST PAUL        CLOUDY    30  28  92 SE6       29.72S WCI  24
CRYSTAL        CLOUDY    33  29  85 S5        29.69S WCI  29
BLAINE         CLOUDY    34  30  86 S6        29.69S WCI  29
LAKEVILLE      CLOUDY    32  30  93 W3        29.70S
EDEN PRAIRIE   CLOUDY    33  29  85 SW7       29.69S WCI  27
SOUTH ST PAUL  CLOUDY    31  28  89 CALM      29.70F
LAKE ELMO      CLOUDY    30  28  93 S7        29.70F WCI  23
$$
MNZ001>005-007-008-013>017-022>024-027-028-261600-
   Northwest Minnesota

CITY           SKY/WX    TMP DP  RH WIND       PRES   REMARKS
BEMIDJI        CLOUDY    33  31  94 W15       29.63R WCI  23
HALLOCK        CLOUDY    37  32  81 NW16      29.69R
ROSEAU         LGT RAIN  36  30  80 NW12      29.62R
WARROAD        LGT RAIN  36  30  80 NW10      29.62R
THIEF RVR FALL CLOUDY    36  30  80 NW14      29.67R
CROOKSTON      CLOUDY    36  30  80 NW17      29.70R
FOSSTON        MIX PCPN  32  28  86 NW12G18   29.67R WCI  23
DETROIT LAKES  CLOUDY    34  32  93 NW18      29.69R WCI  23
MOORHEAD       CLEAR     36  34  93 NW12      29.73R
PARK RAPIDS    CLOUDY    35  30  82 NW15      29.64R WCI  25
MAHNOMEN       CLOUDY    31  28  91 NW10      29.69R WCI  22
$$
MNZ006-009>011-018-025>026-261600-
   North Central Minnesota

CITY           SKY/WX    TMP DP  RH WIND       PRES   REMARKS
BAUDETTE       CLOUDY    34  30  85 NW18G25   29.57R WCI  23
FLAG ISLAND    DRIZZLE   30  30 100 NW16      29.58R WCI  19
INTL FALLS     CLOUDY    26  24  92 CALM      29.57R
WASKISH        CLOUDY   N/A N/A N/A SW9       29.60R
BIG FORK       MIX PCPN  28  27  93 SW5       29.58S WCI  23
LONGVILLE      CLOUDY    32  28  86 W8        29.61S WCI  25
GRAND RAPIDS   CLOUDY    28  27  93 SW6       29.58F WCI  22
CRANE LAKE     LGT SNOW  21  19  93 CALM      29.61S
ORR            LGT SNOW  23  19  86 CALM      29.56R
COOK           LGT SNOW  21  21 100 CALM      29.59R
WALKER         CLOUDY    33  30  88 W9        29.62R WCI  25
$$
MNZ012-019>021-037-261600-
   Northeast Minnesota

CITY           SKY/WX    TMP DP  RH WIND       PRES   REMARKS
DULUTH         LGT SNOW  22  19  89 SW9       29.61F FOG     WCI  12
ELY            FLURRIES  19  18  93 S7        29.60F WCI  10
HIBBING        LGT SNOW  23  19  85 S5        29.60R FOG     WCI  17
EVELETH        LGT SNOW  23  21  93 S5        29.61S VSB 3/4 WCI  17
DULUTH HARBOR  CLOUDY    23  21  93 CALM      29.68S FOG
TWO HARBORS    LGT SNOW  25  19  80 CALM      29.63S
SILVER BAY     LGT SNOW  23  21  93 CALM      29.64F VSB 3/4
GRAND MARAIS     N/A     26  23  88 S13       29.71F WCI  15
G MARAIS ARPRT LGT SNOW  18  16  93 S7        29.63F WCI   8
$$
MNZ029>031-032-039>041-046>048-054>057-064-261600-
   West Central Minnesota

CITY           SKY/WX    TMP DP  RH WIND       PRES   REMARKS
FERGUS FALLS   CLEAR     28  28 100 W8        29.75R WCI  20
WHEATON        CLEAR     36  30  80 W17G25    29.77R
MORRIS         CLEAR     36  32  87 NW17      29.72S
ALEXANDRIA     CLEAR     33  29  85 NW13      29.70R WCI  24
ELBOW LAKE     FAIR      31  29  93 NW12      29.72R WCI  22
WADENA         CLOUDY    28  28 100 W6        29.67R WCI  22
GLENWOOD       CLEAR     34  30  86 W14       29.71R WCI  24
APPLETON       CLEAR     37  32  81 W10       29.75S
BENSON           N/A     36  30  80 NW10      29.73R
ORTONVILLE     CLEAR     37  30  75 W14       29.76R
MADISON        CLEAR     41  36  81 NW12      29.77R
WILLMAR        FAIR      36  30  80 NW10      29.73R
$$
MNZ033>034-036-042>043-049>051-058-059-261600-
   Central Minnesota

CITY           SKY/WX    TMP DP  RH WIND       PRES   REMARKS
ST CLOUD       MOSUNNY   32  29  88 W3        29.67S
SAUK CENTRE    FAIR      32  30  90 W8        29.69R WCI  25
PAYNESVILLE    SUNNY     30  29  94 SW10      29.70R WCI  21
AITKIN         LGT SNOW  32  27  80 SW5       29.61F WCI  27
PINE RIVER     CLOUDY    32  28  86 W5        29.67R WCI  27
BRAINERD       CLOUDY    30  27  88 W6        29.64S WCI  24
STAPLES        MOCLDY    30  28  93 W8        29.66R WCI  23
LONG PRAIRIE   FAIR      32  28  86 W12       29.68R WCI  23
LITTLE FALLS   CLEAR     32  30  93 W6        29.67R WCI  26
LITCHFIELD     SUNNY     36  34  93 W10       29.70S
BUFFALO        CLOUDY    32  30  92 S3        29.69S
MAPLE LAKE     CLOUDY    35  32  92 W6        29.69S WCI  29
$$
MNZ037-044-045-052-053-261600-
   East Central Minnesota

CITY           SKY/WX    TMP DP  RH WIND       PRES   REMARKS
PRINCETON      PTSUNNY   30  28  93 S5        29.66F WCI  25
MORA           CLOUDY    27  25  93 S3        29.67S
CAMBRIDGE      CLOUDY    30  23  74 S8        29.64F WCI  23
RUSH CITY      CLOUDY    26  25  94 S5        29.67S WCI  20
MOOSE LAKE     LGT SNOW  23  21  93 S3        29.63S
HINCKLEY       LGT SNOW  27  25  93 S5        29.65F WCI  21
CLOQUET        CLOUDY    21  19  93 S3        29.62S FOG
MCGREGOR       CLOUDY    28  27  93 SW5       29.62F WCI  23
$$
MNZ071>073-080-081-089-090-097-098-261600-
   Southwest Minnesota

CITY           SKY/WX    TMP DP  RH WIND       PRES   REMARKS
MONTEVIDEO     CLEAR     37  37 100 NW9G17    29.77R
GRANITE FALLS  CLEAR     36  32  87 W14       29.77R
CANBY          CLEAR     38  33  82 W12       29.79R
MARSHALL       CLEAR     36  28  75 NW15      29.79R
REDWOOD FALLS  SUNNY     38  32  79 NW12      29.74R
OLIVIA         SUNNY     34  32  93 NW13      29.73R WCI  25
PIPESTONE      SUNNY     36  32  87 NW9       29.80R
WINDOM         FAIR      36  32  87 W16       29.76R
WORTHINGTON    PTSUNNY   36  30  80 NW15      29.78S
JACKSON        PTSUNNY   36  32  87 NW16      29.76R
TRACY          SUNNY     38  33  81 NW15G21   29.77R
SLAYTON        MOSUNNY   35  32  87 NW16      29.78R WCI  25
$$
MNZ065>067-074>077-082>085-091>093-261600-
   South Central Minnesota

CITY           SKY/WX    TMP DP  RH WIND       PRES   REMARKS
MANKATO        SUNNY     36  30  80 W14       29.71S
NEW ULM        SUNNY     36  30  80 W13       29.73R
ST JAMES       SUNNY     39  34  81 W18       29.75R
FAIRMONT       MOSUNNY   37  28  70 W18       29.74R
GLENCOE        SUNNY     34  32  93 W8        29.70R WCI  27
FARIBAULT      CLOUDY    34  30  86 S7        29.71F WCI  28
OWATONNA       CLOUDY    34  30  86 SW10      29.71F WCI  26
WASECA         MOSUNNY   32  30  93 SW8       29.73F WCI  25
ALBERT LEA     CLOUDY    34  32  93 SW6       29.72R WCI  29
$$
MNZ078>079-086>088-094>096-261600-
   Southeast Minnesota

CITY           SKY/WX    TMP DP  RH WIND       PRES   REMARKS
ROCHESTER      CLOUDY    27  25  92 S16       29.74R WCI  15
RED WING       CLOUDY    30  27  86 CALM      29.72F
STANTON        CLOUDY    33  29  88 S7        29.70F WCI  26
DODGE CENTER   CLOUDY    30  30 100 SW15      29.71F WCI  19
WINONA         CLOUDY    28  23  80 S6        29.78F WCI  22
AUSTIN         CLOUDY    30  28  93 S9        29.73S WCI  22
PRESTON        CLOUDY    25  23  93 S13       29.75R FOG     WCI  13
$$
ABBREVIATIONS USED IN REMARKS
   TC - TEMPERATURES IN CELSIUS
  WCI - WIND CHILL INDEX
   HX - HEAT INDEX
  VSB - VISIBILITY
$$


USA.gov is the U.S. government's official web portal to all federal, state and local government web resources and services.